Location: Mountain_View
(35.6670°N, 81.4000°W)
Time: 13:19:01
(UTC-04:00)

Amateur Radio Satellites - All Passes

Search period start: 27 March 2015 12:49
Search period end: 28 March 2015 12:49
Location: Mountain_View, 35.6670°N, 81.4000°W

Satellite Date Start Highest point End Downlink Frequencies (MHz)
Time Altitude Azimuth
DX 1 27 Mar 12:49:34 12:52:28 17° 292° (WNW) 12:55:13 434.975-435.025
BUGSAT 1 27 Mar 12:51:26 12:54:42 21° 265° (W) 12:57:50 437.445
NANOSAT C BR1 27 Mar 12:51:36 12:54:16 16° 268° (W) 12:56:44 145.865
POLYITAN 1 27 Mar 12:53:51 12:56:18 14° 268° (W) 12:58:33 437.675
Oscar 19 27 Mar 13:01:26 13:04:39 18° 67° (ENE) 13:08:04 437.125/150
YUBILEINY 27 Mar 13:01:30 13:04:47 13° 80° (E) 13:08:50 435.215
HUMSAT D 27 Mar 13:04:59 13:07:44 16° 291° (WNW) 13:10:21 437.325/437.525
BEESAT 3 27 Mar 13:07:58 13:09:06 11° 316° (NW) 13:10:02 437.485
VELOX 1 27 Mar 13:19:35 13:22:48 19° 291° (WNW) 13:25:53 145.980
AIST 2 27 Mar 13:23:14 13:26:40 22° 309° (NW) 13:30:03 435.215
AISAT 27 Mar 13:23:25 13:26:22 17° 292° (WNW) 13:29:10 437.250
CUBEBUG 1 27 Mar 13:26:06 13:30:03 34° 288° (WNW) 13:33:55 437.445
TISAT 1 27 Mar 13:42:36 13:46:47 73° 101° (E) 13:50:58 437.305
SPROUT 27 Mar 13:44:09 13:48:27 88° 284° (WNW) 13:52:44 437.525
ESTCUBE 1 27 Mar 13:44:31 13:47:56 21° 291° (WNW) 13:51:15 437.505/2401.250
VERMONT LUNAR 27 Mar 13:50:59 13:52:10 11° 217° (SW) 13:53:14 437.305
ITAMSAT 1 27 Mar 14:01:00 14:04:49 22° 68° (ENE) 14:08:49 435.822/435.867
PHONESAT 2.4 27 Mar 14:10:34 14:13:20 21° 214° (SW) 14:16:03 2401.200-2431.200
ITUPSAT 1 27 Mar 14:11:32 14:15:02 21° 93° (E) 14:18:39 437.325
O/OREOS (USA 219) 27 Mar 14:20:52 14:23:48 17° 58° (ENE) 14:26:52 437.305
Gurwin Techsat 1B 27 Mar 14:35:20 14:40:07 37° 71° (ENE) 14:45:00 435.225
Oscar 19 27 Mar 14:38:43 14:43:40 49° 261° (W) 14:48:37 437.125/150
YUBILEINY 27 Mar 14:51:41 15:00:28 83° 94° (E) 15:09:21 435.215
SWISSCUBE 27 Mar 14:59:30 15:04:19 78° 103° (ESE) 15:09:05 437.505
BEESAT 27 Mar 15:02:54 15:07:42 78° 103° (ESE) 15:12:28 436.000
JAS-2 27 Mar 15:17:36 15:21:06 15° 59° (ENE) 15:25:10 435.910
HORYU 2 27 Mar 15:20:14 15:23:25 20° 69° (ENE) 15:26:45 437.375
ITAMSAT 1 27 Mar 15:39:11 15:44:06 41° 262° (W) 15:49:00 435.822/435.867
KKS-1 27 Mar 15:48:06 15:52:17 41° 98° (E) 15:56:31 437.445
ITUPSAT 1 27 Mar 15:48:40 15:53:03 35° 289° (WNW) 15:57:21 437.325
AO-7 27 Mar 15:54:07 16:01:50 46° 66° (ENE) 16:09:39 29.400- 29.500
PCSat 27 Mar 15:56:55 16:02:20 87° 116° (ESE) 16:07:48 145.827
JUGNU 27 Mar 15:57:39 16:00:51 15° 172° (S) 16:04:06 437.505
O/OREOS (USA 219) 27 Mar 15:59:12 16:03:28 40° 255° (WSW) 16:07:40 437.305
AIST 1 27 Mar 16:08:30 16:12:39 44° 80° (E) 16:16:45
Gurwin Techsat 1B 27 Mar 16:15:56 16:20:13 24° 266° (W) 16:24:23 435.225
STARS 27 Mar 16:25:17 16:29:40 70° 102° (ESE) 16:34:03 437.465
SWISSCUBE 27 Mar 16:41:15 16:41:37 10° 296° (WNW) 16:41:39 437.505
BEESAT 27 Mar 16:44:28 16:44:59 10° 296° (WNW) 16:45:11 436.000
YUBILEINY 27 Mar 16:52:40 16:58:34 18° 296° (WNW) 17:03:59 435.215
SRMSAT 27 Mar 16:53:31 16:55:47 12° 169° (SSE) 16:58:08 437.500
HORYU 2 27 Mar 16:55:58 16:59:55 31° 263° (W) 17:03:51 437.375
JAS-2 27 Mar 16:58:24 17:05:02 86° 76° (ENE) 17:12:33 435.910
MOZHAYETS 4 27 Mar 17:08:08 17:10:58 16° 91° (E) 17:14:00
KKS-1 27 Mar 17:25:52 17:28:39 16° 292° (WNW) 17:31:16 437.445
PCSat 27 Mar 17:43:51 17:46:36 13° 315° (NW) 17:49:04 145.827
Cubesat XI-IV 27 Mar 17:45:16 17:48:32 17° 66° (ENE) 17:52:02 437.490
JUGNU 27 Mar 17:45:27 17:49:09 17° 182° (S) 17:52:50 437.505
CUTE-I 27 Mar 17:45:45 17:49:00 17° 66° (ENE) 17:52:29 437.470
M-CUBED/EXP-1 PRIME 27 Mar 17:45:47 17:48:39 16° 95° (E) 17:51:41 437.505
AO-7 27 Mar 17:47:14 17:54:46 36° 262° (W) 18:02:10 29.400- 29.500
AIST 1 27 Mar 17:48:16 17:49:55 12° 273° (W) 17:51:19
SRMSAT 27 Mar 18:40:34 18:44:13 17° 178° (S) 18:47:53 437.500
RS-15 27 Mar 18:43:04 18:51:25 28° 106° (ESE) 19:00:16 29.354- 29.394
MOZHAYETS 4 27 Mar 18:44:03 18:48:26 41° 287° (WNW) 18:52:45
JAS-2 27 Mar 18:47:45 18:51:19 14° 276° (W) 18:54:31 435.910
CUBESAT XI-V 27 Mar 18:49:30 18:51:54 14° 90° (E) 18:54:31 437.345
AUBIESAT-1 27 Mar 18:56:23 19:01:15 84° 107° (ESE) 19:05:59 437.475
PRISM 27 Mar 18:56:56 18:58:21 12° 91° (E) 19:00:02 437.425
GONETS M04 27 Mar 19:11:41 19:17:51 23° 84° (E) 19:24:26
M-CUBED/EXP-1 PRIME 27 Mar 19:19:06 19:23:49 50° 291° (WNW) 19:28:25 437.505
Cubesat XI-IV 27 Mar 19:22:58 19:28:14 56° 260° (W) 19:33:31 437.490
CUTE-I 27 Mar 19:23:25 19:28:41 56° 260° (W) 19:33:58 437.470
JUGNU 27 Mar 19:35:08 19:37:26 12° 192° (SSW) 19:39:38 437.505
BRITE-PL 27 Mar 19:45:51 19:46:38 11° 68° (ENE) 19:47:43 437.365/2234.400
BEESAT 3 27 Mar 19:48:57 19:51:56 20° 50° (NE) 19:54:59 437.485
HO-68 27 Mar 19:58:19 20:03:09 21° 61° (ENE) 20:08:16 435.675
SO-50 27 Mar 20:03:08 20:07:42 83° 118° (ESE) 20:12:28 436.795
AIST 2 27 Mar 20:10:43 20:11:45 11° 43° (NE) 20:13:00 435.215
STRAND 1 27 Mar 20:22:34 20:27:41 77° 102° (ESE) 20:32:47 437.568
CUBESAT XI-V 27 Mar 20:25:13 20:29:40 46° 286° (WNW) 20:34:03 437.345
SRMSAT 27 Mar 20:29:31 20:32:40 15° 188° (S) 20:35:45 437.500
PRISM 27 Mar 20:30:09 20:34:10 45° 286° (WNW) 20:38:08 437.425
AUBIESAT-1 27 Mar 20:34:04 20:35:26 11° 300° (WNW) 20:36:30 437.475
DOVE 4 27 Mar 20:39:33 20:42:13 17° 70° (ENE) 20:44:59 437.250
GOMX 1 27 Mar 20:39:58 20:43:43 26° 73° (ENE) 20:47:24 467.674
SEEDS 27 Mar 20:42:53 20:45:43 18° 70° (ENE) 20:48:42 437.485
AAUSAT CUBESAT 2 27 Mar 20:44:03 20:45:52 13° 68° (ENE) 20:47:55 437.432
BEESAT 2 27 Mar 20:46:31 20:50:38 68° 58° (ENE) 20:54:41 435.950
RS-15 27 Mar 20:52:07 21:02:59 70° 303° (WNW) 21:14:01 29.354- 29.394
GONETS M04 27 Mar 21:05:27 21:14:04 65° 280° (W) 21:22:44
COMPASS 1 27 Mar 21:07:37 21:11:11 28° 72° (ENE) 21:14:50 437.405
BRITE-PL 27 Mar 21:19:58 21:24:51 68° 259° (W) 21:29:22 437.365/2234.400
BEESAT 3 27 Mar 21:26:23 21:30:06 33° 246° (WSW) 21:33:44 437.485
CUSAT 1 27 Mar 21:27:05 21:29:41 24° 97° (E) 21:32:00 437.405
CANX-2 27 Mar 21:30:33 21:34:46 87° 258° (WSW) 21:39:02 2200.000
HO-68 27 Mar 21:43:09 21:50:16 71° 257° (WSW) 21:57:27 435.675
CUTE 1.7 + AOD 2 27 Mar 21:44:51 21:49:02 64° 259° (W) 21:53:16 437.475
AIST 2 27 Mar 21:46:43 21:50:59 78° 242° (WSW) 21:55:08 435.215
SO-50 27 Mar 21:46:51 21:48:59 13° 318° (NW) 21:50:57 436.795
UKube-1 27 Mar 21:58:50 22:01:40 18° 69° (ENE) 22:04:39 .
DANDE 27 Mar 22:03:33 22:07:04 68° 98° (E) 22:09:55 436.750
STRAND 1 27 Mar 22:04:35 22:06:19 11° 296° (WNW) 22:07:45 437.568
DX 1 27 Mar 22:05:49 22:09:11 23° 70° (ENE) 22:12:38 434.975-435.025
DELFI C3 27 Mar 22:08:54 22:12:45 44° 74° (ENE) 22:16:41 145.870
CINEMA 3 27 Mar 22:09:18 22:13:34 89° 256° (WSW) 22:17:46 145.822/145.860
DOVE 4 27 Mar 22:15:42 22:19:50 36° 262° (W) 22:23:45 437.250
AAUSAT CUBESAT 2 27 Mar 22:17:10 22:21:09 44° 261° (W) 22:25:11 437.432
SEEDS 27 Mar 22:17:36 22:21:21 31° 264° (W) 22:25:05 437.485
GOMX 1 27 Mar 22:18:06 22:21:52 24° 265° (W) 22:25:21 467.674
HUMSAT D 27 Mar 22:18:35 22:21:16 18° 70° (ENE) 22:24:06 437.325/437.525
Oscar 11 27 Mar 22:27:29 22:31:47 79° 257° (WSW) 22:36:08 145.826/435.025
UWE-3 27 Mar 22:33:27 22:37:35 73° 77° (ENE) 22:41:44 435.000/436.395/437.385
CUBEBUG 2 27 Mar 22:34:21 22:38:31 87° 257° (WSW) 22:42:41 437.445
FUNcube-1 27 Mar 22:34:24 22:38:27 57° 76° (ENE) 22:42:32 145.935
VELOX 1 27 Mar 22:37:58 22:41:17 21° 70° (ENE) 22:44:42 145.980
AISAT 27 Mar 22:41:32 22:45:04 24° 70° (ENE) 22:48:41 437.250
COMPASS 1 27 Mar 22:43:52 22:46:56 19° 267° (W) 22:49:54 437.405
CUBEBUG 1 27 Mar 22:46:07 22:47:15 11° 66° (ENE) 22:48:39 437.445
ZACube-1 27 Mar 22:46:25 22:50:34 84° 80° (E) 22:54:44 437.345
TIGRISAT 27 Mar 22:54:18 22:56:12 13° 90° (E) 22:58:23 435.000
ESTCUBE 1 27 Mar 23:04:39 23:08:02 22° 70° (ENE) 23:11:33 437.505/2401.250
RS-15 27 Mar 23:10:10 23:18:03 21° 331° (NNW) 23:25:44 29.354- 29.394
ISS 27 Mar 23:15:12 23:18:04 30° 132° (SE) 23:20:59 145.825
ANTELSAT 27 Mar 23:21:54 23:25:48 28° 96° (E) 23:29:51 437.575/2403.000
50 SAT 27 Mar 23:25:34 23:29:27 77° 78° (ENE) 23:33:24 437.505
UKube-1 27 Mar 23:33:36 23:37:36 35° 262° (W) 23:41:34 .
DX 1 27 Mar 23:41:34 23:45:19 27° 264° (W) 23:49:01 434.975-435.025
QB50P1 27 Mar 23:43:33 23:46:50 22° 95° (E) 23:50:12 145.935-145.965
DUCHIFAT 1 27 Mar 23:46:28 23:49:50 23° 95° (E) 23:53:16 145.980
DELFI C3 27 Mar 23:46:46 23:48:15 11° 270° (W) 23:49:29 145.870
HUMSAT D 27 Mar 23:53:14 23:56:51 30° 263° (W) 00:00:28 437.325/437.525
QB50P2 27 Mar 23:57:16 00:01:06 33° 97° (E) 00:04:58 145.880/145.840
VELOX 1 28 Mar 00:13:46 00:17:43 30° 264° (W) 00:21:36 145.980
UNISAT 6 28 Mar 00:17:36 00:22:09 69° 285° (WNW) 00:26:47 437.425
AISAT 28 Mar 00:17:50 00:21:36 26° 264° (W) 00:25:17 437.250
CUBEBUG 1 28 Mar 00:18:48 00:23:11 60° 259° (W) 00:27:33 437.445
POPSAT HIP 1 28 Mar 00:26:11 00:30:25 75° 101° (E) 00:34:39 437.405
TIGRISAT 28 Mar 00:28:51 00:33:18 52° 285° (WNW) 00:37:48 435.000
TISAT 1 28 Mar 00:32:10 00:36:02 36° 73° (ENE) 00:39:55 437.305
SPROUT 28 Mar 00:35:25 00:39:32 47° 74° (ENE) 00:43:40 437.525
BUGSAT 1 28 Mar 00:35:36 00:39:37 67° 101° (E) 00:43:36 437.445
NANOSAT C BR1 28 Mar 00:37:37 00:41:51 79° 285° (WNW) 00:46:04 145.865
POLYITAN 1 28 Mar 00:40:08 00:44:22 72° 284° (WNW) 00:48:35 437.675
ESTCUBE 1 28 Mar 00:40:41 00:44:45 31° 264° (W) 00:48:47 437.505/2401.250
PCSat 28 Mar 00:48:02 00:53:02 37° 56° (ENE) 00:58:03 145.827
ISS 28 Mar 00:51:47 00:54:30 23° 327° (NNW) 00:57:12 145.825
ANTELSAT 28 Mar 00:58:46 01:02:31 25° 289° (WNW) 01:06:14 437.575/2403.000
YUBILEINY 28 Mar 01:06:09 01:13:59 36° 73° (ENE) 01:21:54 435.215
ITUPSAT 1 28 Mar 01:16:10 01:19:19 18° 68° (ENE) 01:22:40 437.325
QB50P1 28 Mar 01:19:11 01:22:42 25° 289° (WNW) 01:26:07 145.935-145.965
DUCHIFAT 1 28 Mar 01:22:12 01:25:36 24° 289° (WNW) 01:28:57 145.980
RS-15 28 Mar 01:32:09 01:36:45 13° 7° (N) 01:41:36 29.354- 29.394
QB50P2 28 Mar 01:33:54 01:36:48 18° 291° (WNW) 01:39:32 145.880/145.840
SWISSCUBE 28 Mar 02:03:05 02:07:49 64° 74° (ENE) 02:12:35 437.505
BEESAT 28 Mar 02:06:23 02:11:07 63° 74° (ENE) 02:15:53 436.000
TISAT 1 28 Mar 02:09:23 02:12:00 15° 268° (W) 02:14:27 437.305
SPROUT 28 Mar 02:14:07 02:15:57 12° 270° (W) 02:17:33 437.525
PCSat 28 Mar 02:31:49 02:36:18 26° 252° (WSW) 02:40:38 145.827
KKS-1 28 Mar 02:43:53 02:47:34 27° 71° (ENE) 02:51:18 437.445
ITUPSAT 1 28 Mar 02:52:22 02:56:56 42° 262° (W) 03:01:30 437.325
Oscar 19 28 Mar 02:52:57 02:58:08 75° 102° (ESE) 03:03:19 437.125/150
Gurwin Techsat 1B 28 Mar 02:55:18 02:58:48 18° 92° (E) 03:02:31 435.225
YUBILEINY 28 Mar 03:02:43 03:10:58 45° 271° (W) 03:19:02 435.215
STARS 28 Mar 03:19:29 03:23:36 42° 73° (ENE) 03:27:45 437.465
SWISSCUBE 28 Mar 03:44:38 03:46:11 11° 271° (W) 03:47:25 437.505
RS-15 28 Mar 03:44:51 03:54:32 32° 40° (NE) 04:04:52 29.354- 29.394
BEESAT 28 Mar 03:47:54 03:49:28 11° 271° (W) 03:50:42 436.000
ITAMSAT 1 28 Mar 03:54:38 03:59:52 89° 260° (W) 04:05:02 435.822/435.867
AO-7 28 Mar 04:01:04 04:05:18 15° 89° (E) 04:10:08 29.400- 29.500
MOZHAYETS 4 28 Mar 04:08:55 04:10:26 12° 66° (ENE) 04:12:13
JAS-2 28 Mar 04:13:40 04:18:01 17° 86° (E) 04:22:37 435.910
KKS-1 28 Mar 04:20:35 04:24:12 23° 265° (W) 04:27:42 437.445
O/OREOS (USA 219) 28 Mar 04:29:20 04:33:22 32° 104° (ESE) 04:37:28 437.305
M-CUBED/EXP-1 PRIME 28 Mar 04:33:21 04:34:37 11° 60° (ENE) 04:36:08 437.505
Gurwin Techsat 1B 28 Mar 04:33:59 04:39:05 47° 288° (WNW) 04:44:08 435.225
Oscar 19 28 Mar 04:34:51 04:36:56 12° 296° (WNW) 04:38:42 437.125/150
AIST 1 28 Mar 04:35:02 04:38:54 31° 91° (E) 04:42:50
SO-50 28 Mar 04:37:34 04:42:06 35° 53° (NE) 04:46:38 436.795
HORYU 2 28 Mar 04:49:34 04:54:02 61° 101° (E) 04:58:30 437.375
STARS 28 Mar 04:57:49 05:00:19 14° 268° (W) 05:02:36 437.465
AUBIESAT-1 28 Mar 05:42:01 05:45:52 65° 70° (ENE) 05:50:06 437.475
MOZHAYETS 4 28 Mar 05:42:38 05:47:11 62° 259° (W) 05:51:48
ISS 28 Mar 05:45:35 05:47:26 14° 27° (NNE) 05:49:21 145.825
AO-7 28 Mar 05:50:54 05:59:14 89° 287° (WNW) 06:07:33 29.400- 29.500
CUBESAT XI-V 28 Mar 05:51:43 05:52:58 11° 66° (ENE) 05:54:30 437.345
JAS-2 28 Mar 05:56:17 06:04:05 81° 286° (WNW) 06:11:13 435.910
RS-15 28 Mar 05:56:44 06:08:20 79° 243° (WSW) 06:20:24 29.354- 29.394
M-CUBED/EXP-1 PRIME 28 Mar 06:05:12 06:08:58 55° 256° (WSW) 06:13:07 437.505
O/OREOS (USA 219) 28 Mar 06:09:15 06:12:52 22° 300° (WNW) 06:16:22 437.305
AIST 1 28 Mar 06:13:33 06:16:40 18° 287° (WNW) 06:19:39
SO-50 28 Mar 06:18:27 06:22:31 25° 248° (WSW) 06:26:25 436.795
HORYU 2 28 Mar 06:28:35 06:30:14 12° 294° (WNW) 06:31:38 437.375
VERMONT LUNAR 28 Mar 06:29:46 06:33:02 53° 153° (SSE) 06:36:19 437.305
PHONESAT 2.4 28 Mar 06:57:21 07:00:36 36° 150° (SSE) 07:03:54 2401.200-2431.200
PRISM 28 Mar 07:17:05 07:21:18 85° 78° (ENE) 07:25:33 437.425
GONETS M04 28 Mar 07:19:13 07:27:51 57° 78° (ENE) 07:36:31
ISS 28 Mar 07:20:58 07:24:11 69° 223° (SW) 07:27:22 145.825
CUBESAT XI-V 28 Mar 07:25:13 07:29:54 68° 259° (W) 07:34:37 437.345
STRAND 1 28 Mar 07:35:23 07:40:33 82° 74° (ENE) 07:45:43 437.568
Cubesat XI-IV 28 Mar 07:43:10 07:48:31 76° 102° (ESE) 07:53:50 437.490
CUTE-I 28 Mar 07:43:27 07:48:47 76° 102° (ESE) 07:54:05 437.470
JAS-2 28 Mar 07:43:46 07:47:59 15° 301° (WNW) 07:51:39 435.910
AO-7 28 Mar 07:45:46 07:51:05 18° 304° (NW) 07:56:01 29.400- 29.500
CUSAT 1 28 Mar 08:04:18 08:07:42 22° 78° (ENE) 08:12:01 437.405
VERMONT LUNAR 28 Mar 08:07:36 08:10:49 42° 349° (NNW) 08:14:03 437.305
RS-15 28 Mar 08:12:47 08:19:30 16° 258° (WSW) 08:25:16 29.354- 29.394
PHONESAT 2.4 28 Mar 08:35:26 08:38:54 54° 345° (NNW) 08:42:23 2401.200-2431.200
DANDE 28 Mar 08:44:00 08:47:52 41° 81° (E) 08:52:59 436.750
HO-68 28 Mar 09:14:53 09:20:39 27° 94° (E) 09:26:36 435.675
GONETS M04 28 Mar 09:17:03 09:24:14 28° 275° (W) 09:31:08
CANX-2 28 Mar 09:19:43 09:22:52 20° 93° (E) 09:26:08 2200.000
Cubesat XI-IV 28 Mar 09:25:46 09:28:03 12° 296° (WNW) 09:30:01 437.490
CUTE-I 28 Mar 09:26:01 09:28:18 12° 296° (WNW) 09:30:17 437.470
BRITE-PL 28 Mar 09:27:28 09:31:28 42° 99° (E) 09:35:41 437.365/2234.400
CUTE 1.7 + AOD 2 28 Mar 09:33:31 09:37:07 26° 95° (E) 09:40:47 437.475
VERMONT LUNAR 28 Mar 09:45:48 09:48:56 36° 5° (N) 09:52:06 437.305
CUSAT 1 28 Mar 09:46:26 09:50:25 31° 263° (W) 09:55:26 437.405
AAUSAT CUBESAT 2 28 Mar 10:03:19 10:07:09 34° 97° (E) 10:11:01 437.432
SEEDS 28 Mar 10:04:27 10:08:38 51° 99° (E) 10:12:49 437.485
CINEMA 3 28 Mar 10:07:02 10:10:45 26° 96° (E) 10:14:39 145.822/145.860
PHONESAT 2.4 28 Mar 10:14:20 10:17:38 36° 2° (N) 10:20:57 2401.200-2431.200
DOVE 4 28 Mar 10:16:40 10:21:00 69° 102° (ESE) 10:25:34 437.250
Oscar 11 28 Mar 10:18:26 10:21:53 23° 94° (E) 10:25:24 145.826/435.025
ANTELSAT 28 Mar 10:19:31 10:22:09 17° 69° (ENE) 10:24:58 437.575/2403.000
GOMX 1 28 Mar 10:21:18 10:25:33 68° 284° (WNW) 10:30:01 467.674
UWE-3 28 Mar 10:26:52 10:29:57 19° 93° (E) 10:33:14 435.000/436.395/437.385
FUNcube-1 28 Mar 10:26:57 10:29:17 14° 91° (E) 10:31:51 145.935
CUBEBUG 2 28 Mar 10:28:32 10:32:07 24° 95° (E) 10:35:52 437.445
DANDE 28 Mar 10:28:38 10:31:12 15° 264° (W) 10:33:54 436.750
COMPASS 1 28 Mar 10:28:59 10:33:16 84° 102° (ESE) 10:37:30 437.405
QB50P1 28 Mar 10:35:19 10:37:00 12° 68° (ENE) 10:38:54 145.935-145.965
DUCHIFAT 1 28 Mar 10:37:50 10:39:40 13° 68° (ENE) 10:41:43 145.980
BEESAT 2 28 Mar 10:38:30 10:41:53 26° 113° (ESE) 10:45:23 435.950
ZACube-1 28 Mar 10:38:32 10:41:46 20° 94° (E) 10:45:10 437.345
QB50P2 28 Mar 10:48:24 10:51:15 18° 69° (ENE) 10:54:13 145.880/145.840
CANX-2 28 Mar 10:55:05 10:58:51 29° 288° (WNW) 11:02:32 2200.000
HO-68 28 Mar 11:01:45 11:08:42 52° 290° (WNW) 11:15:33 435.675
BRITE-PL 28 Mar 11:07:38 11:09:47 13° 291° (WNW) 11:11:46 437.365/2234.400
50 SAT 28 Mar 11:08:17 11:09:52 12° 91° (E) 11:11:40 437.505
CUTE 1.7 + AOD 2 28 Mar 11:09:33 11:12:57 22° 289° (WNW) 11:16:15 437.475
UNISAT 6 28 Mar 11:13:53 11:18:07 73° 76° (ENE) 11:22:25 437.425
POPSAT HIP 1 28 Mar 11:16:22 11:20:14 37° 73° (ENE) 11:24:10 437.405
BEESAT 3 28 Mar 11:16:26 11:20:31 89° 139° (SE) 11:24:40 437.485
BUGSAT 1 28 Mar 11:23:04 11:26:45 31° 73° (ENE) 11:30:27 437.445
VERMONT LUNAR 28 Mar 11:23:30 11:26:53 90° 214° (SW) 11:30:16 437.305
UKube-1 28 Mar 11:23:50 11:27:59 46° 99° (E) 11:32:09 .
TIGRISAT 28 Mar 11:24:47 11:29:01 85° 257° (WSW) 11:33:19 435.000
DELFI C3 28 Mar 11:26:25 11:30:30 67° 284° (WNW) 11:34:33 145.870
NANOSAT C BR1 28 Mar 11:27:19 11:31:24 51° 75° (ENE) 11:35:31 145.865
POLYITAN 1 28 Mar 11:30:16 11:34:24 57° 75° (ENE) 11:38:33 437.675
DX 1 28 Mar 11:32:07 11:36:25 62° 101° (E) 11:40:42 434.975-435.025
HUMSAT D 28 Mar 11:39:40 11:43:49 50° 99° (E) 11:48:00 437.325/437.525
AAUSAT CUBESAT 2 28 Mar 11:39:43 11:42:34 17° 291° (WNW) 11:45:16 437.432
AIST 2 28 Mar 11:41:55 11:45:57 45° 115° (ESE) 11:50:04 435.215
SEEDS 28 Mar 11:42:17 11:44:03 12° 293° (WNW) 11:45:37 437.485
CINEMA 3 28 Mar 11:44:18 11:47:54 24° 288° (WNW) 11:51:32 145.822/145.860
PHONESAT 2.4 28 Mar 11:52:45 11:56:17 69° 18° (NNE) 11:59:50 2401.200-2431.200
Oscar 11 28 Mar 11:54:22 11:58:02 26° 289° (WNW) 12:01:37 145.826/435.025
ANTELSAT 28 Mar 11:54:48 11:58:43 35° 263° (W) 12:02:39 437.575/2403.000
FUNcube-1 28 Mar 12:01:41 12:05:51 42° 286° (WNW) 12:10:03 145.935
UWE-3 28 Mar 12:02:36 12:06:35 33° 287° (WNW) 12:10:36 435.000/436.395/437.385
CUBEBUG 2 28 Mar 12:05:04 12:08:47 26° 288° (WNW) 12:12:30 437.445
VELOX 1 28 Mar 12:06:42 12:11:05 63° 101° (E) 12:15:26 145.980
QB50P1 28 Mar 12:08:26 12:12:32 48° 261° (W) 12:16:37 145.935-145.965
AISAT 28 Mar 12:10:46 12:15:10 74° 102° (ESE) 12:19:33 437.250
CUBEBUG 1 28 Mar 12:11:05 12:14:52 30° 96° (E) 12:18:40 437.445
DUCHIFAT 1 28 Mar 12:11:07 12:15:10 45° 261° (W) 12:19:13 145.980
ZACube-1 28 Mar 12:14:18 12:18:10 30° 288° (WNW) 12:22:03 437.345
BEESAT 2 28 Mar 12:16:33 12:20:00 25° 308° (NW) 12:23:26 435.950
QB50P2 28 Mar 12:23:10 12:26:57 31° 263° (W) 12:30:44 145.880/145.840
SPROUT 28 Mar 12:28:13 12:28:33 10° 89° (E) 12:29:12 437.525
ESTCUBE 1 28 Mar 12:35:49 12:40:20 68° 101° (E) 12:44:48 437.505/2401.250
50 SAT 28 Mar 12:41:13 12:45:03 41° 286° (WNW) 12:48:51 437.505
